This is the latest recevied weather packets stored in our database for station/object F4ETJ-1. If no packets are shown the sender has not sent any weather packets the latest 10 day(s).
| Time | Temp. | Humidity | Pressure | Rain* | Wind** | Luminosity | Snow |
|---|---|---|---|---|---|---|---|
| 1787849889 | 23.33° C | 70% | 1006.8 hPa | 0 mm | - | - | - |
| 1787849528 | 23.33° C | 71% | 1006.9 hPa | 0 mm | - | - | - |
| 1787849168 | 23.33° C | 69% | 1006.8 hPa | 0 mm | - | - | - |
| 1787848808 | 23.33° C | 70% | 1006.8 hPa | 0 mm | - | - | - |
| 1787848447 | 23.33° C | 72% | 1006.8 hPa | 0 mm | - | - | - |
| 1787848087 | 23.33° C | 72% | 1006.8 hPa | 0 mm | - | - | - |
| 1787847727 | 22.78° C | 75% | 1006.9 hPa | 0 mm | - | - | - |
| 1787847366 | 22.22° C | 76% | 1007 hPa | 0 mm | - | - | - |
| 1787847006 | 22.78° C | 75% | 1006.9 hPa | 0 mm | - | - | - |
| 1787846646 | 22.78° C | 77% | 1006.8 hPa | 0 mm | - | - | - |
| 1787846285 | 22.78° C | 77% | 1006.8 hPa | 0 mm | - | - | - |
| 1787845925 | 23.33° C | 76% | 1007.1 hPa | 0 mm | - | - | - |
| 1787845565 | 23.33° C | 74% | 1007.3 hPa | 0 mm | - | - | - |
| 1787845204 | 23.33° C | 72% | 1007.4 hPa | 0 mm | - | - | - |
| 1787844844 | 23.89° C | 70% | 1007.5 hPa | 0 mm | - | - | - |
| 1787844484 | 24.44° C | 70% | 1007.3 hPa | 0 mm | - | - | - |
| 1787844123 | 25° C | 65% | 1007.1 hPa | 0 mm | - | - | - |
| 1787843763 | 25° C | 64% | 1007 hPa | 0 mm | - | - | - |
| 1787843402 | 25° C | 62% | 1006.7 hPa | 0 mm | - | - | - |
| 1787843043 | 25.56° C | 58% | 1006.6 hPa | 0 mm | - | - | - |
| 1787842682 | 26.11° C | 58% | 1006.6 hPa | 0 mm | - | - | - |
| 1787842321 | 26.11° C | 56% | 1006.6 hPa | 0 mm | - | - | - |
| 1787841961 | 26.67° C | 55% | 1006.6 hPa | 0 mm | - | - | - |
| 1787841601 | 26.67° C | 55% | 1006.5 hPa | 0 mm | - | - | - |
| 1787841240 | 27.22° C | 56% | 1006.6 hPa | 0 mm | - | - | - |
* Rain latest hour (hover to see other rain measurements)
** Current wind speed in m/s (hover to see current wind gust speed)